[Date Prev][Date Next][Thread Prev][Thread Next] - [Date Index][Thread Index][Author Index]
2 Line ISS Keps 2-23
- Subject: [sarex] 2 Line ISS Keps 2-23
- From: "Dave Larsen PhD" <doc@xxxxxxxxxxx>
- Date: Sat, 23 Feb 2002 02:52:25 -0800
ISS
1 25544U 98067A 02054.15439815 .00055048 00000-0 64665-3 0 1092
2 25544 51.6367 266.0190 0011514 105.3528 41.7460 15.60834243186249
----
Via the sarex mailing list at AMSAT.ORG courtesy of AMSAT-NA.
To unsubscribe, send "unsubscribe sarex" to Majordomo@amsat.org
AMSAT Home